Wendover Airport
KENV : rendu visible

Aérodrome :











RETROUVEZ-NOUS SUR...

 
LOGIN :

S'inscrire | Disclaimer

   EN    FR    IT 

 









Légende :    VFR   VFR Marginal   IFR   IFR Intensif   IFR Très Intensif
Visi : 
Plafond : 
>= 8 km
>= 3000ft
5 à 8 km
1000 à 3000 ft
1500m à 5 km
500 à 1000 ft
800 à 1500m
200 à 500 ft
< 800m
< 200 ft
Symboles :   Orages  Brouillard  Fortes neiges  Fortes précipitations  Vent > 20 kt






- Altitude de l'aérodrome : 4237 ft


KENV - Wendover

DERNIER METAR :
  • 250456Z AUTO 02010KT 10SM CLR 16/M03 A3015 RMK AO2 SLP190 T01561028

METARs EXPIRÉS :
  • 250356Z AUTO 01012KT 10SM SCT100 17/M04 A3012 RMK AO2 SLP181 T01671039
  • 250256Z AUTO 01009KT 10SM BKN100 18/M03 A3010 RMK AO2 SLP174 T01781033 53007

TAF KENV
Valide du 25 à 06h jusqu'au 26 à 06h UTC


250520Z 2506/2606 02007KT P6SM SKC
FM250700 VRB05KT P6SM SKC
FM251800 12006KT P6SM FEW250
FIR KZLC / Amérique du Nord



MET'MAP, la Météo Aéronautique d'un coup d'oeil ! - Copyright ORBIFLY Décembre 2007 - Disclaimer

ORBIFLY MET'MAP TEAM :

Programmation & Développement : Alexandra Zaïnal
Sur une idée originale de : Baudouin d'Aumeries
Assistance à la programmation : Marc-Olivier Méhu
Soutien technique & logistique : Manuel Goepfert

Contact : metmap@orbifly.com




SOURCES & CREDITS :

   NOAA       Earth
Advisory